Regional Weather Roundup
Issued by NWS

Home | Current Version | Previous Version | Text Only | Print | Product List | Glossary On
Versions: 1 2 3 4 5 6 7 8 9 10 11 12 13 14 15 16 17 18 19 20 21 22 23 24 25 26 27 28 29 30 31 32 33 34 35 36 37 38 39 40 41 42 43 44 45 46 47 48 49 50
000
ASUS43 KTOP 050459
RWRKS

WEATHER ROUNDUP FOR KANSAS
NATIONAL WEATHER SERVICE GOODLAND KS
1200 AM CDT WED AUG 05 2015

NOTE:  "FAIR" INDICATES FEW OR NO CLOUDS BELOW 12,000 FEET WITH NO
SIGNIFICANT WEATHER AND/OR OBSTRUCTIONS TO VISIBILITY.

KSZ001>006-013>018-027>032-041>047-050600-
NORTHWEST KANSAS

CITY           SKY/WX    TMP DP  RH WIND       PRES   REMARKS
GOODLAND       CLEAR     67  63  87 S6        30.04R
HAYS           MOCLDY    72  61  68 E8        29.95F
HILL CITY      MOCLDY    67  66  97 N8        29.98R
RUSSELL        CLOUDY    72  66  81 SE13      29.93F
$$

KSZ061>065-074>080-084>089-050600-
SOUTHWEST KANSAS

CITY           SKY/WX    TMP DP  RH WIND       PRES   REMARKS
DODGE CITY     CLEAR     70  68  93 E7        29.97R
ELKHART          N/A     75  64  68 S10         N/A
GARDEN CITY    CLEAR     71  64  78 NE8       29.96F
GREAT BEND     MOCLDY    73  68  83 SE10      29.94F
LIBERAL        PTCLDY    77  66  69 SE10        N/A
$$

KSZ066>073-081>083-090>101-050600-
SOUTHEAST KANSAS

CITY           SKY/WX    TMP DP  RH WIND       PRES   REMARKS
CHANUTE        MOCLDY    71  69  93 SE8       29.96F
COFFEYVILLE    PTCLDY    73  71  93 E5        29.95F
HUTCHINSON     CLOUDY    75  69  81 SE9       29.95F
NEWTON         CLOUDY    73  64  73 SE10      29.99S
PARSONS        CLEAR     72  71  97 VRB3      29.97F
WICHITA INTL   CLOUDY    76  70  82 E9        29.95R
WICHITA JABRA  MOCLDY    73  70  90 E8        29.96R
$$

KSZ007>012-019>026-033>040-048>060-102>105-050600-
NORTHEAST KANSAS

CITY           SKY/WX    TMP DP  RH WIND       PRES   REMARKS
CONCORDIA      CLOUDY    67  65  93 CALM      29.96S
EMPORIA        PTCLDY    71  65  81 S12       29.96F
LAWRENCE       MOCLDY    71  69  93 E6        29.98R FOG
MANHATTAN      CLOUDY    72  68  87 W5        29.92F
OLATHE IND     CLOUDY    71  70  96 SE9       29.99S FOG
OLATHE EXE     MOCLDY    71  70  96 S7        29.99F
SALINA         CLOUDY    73  70  90 SE5       29.94S
TOPEKA BILLARD MOCLDY    71  70  96 E6        29.96F
TOPEKA FORBES  PTCLDY    71  68  90 SE5       29.96F FOG
$$


USA.gov is the U.S. government's official web portal to all federal, state and local government web resources and services.